This is the latest recevied weather packets stored in our database for station/object DG6YGE-6. If no packets are shown the sender has not sent any weather packets the latest 10 day(s).
| Time | Temp. | Humidity | Pressure | Rain* | Wind** | Luminosity | Snow |
|---|---|---|---|---|---|---|---|
| 1777738151 | 25° C | 49% | 1014.3 hPa | 0 mm | - | 127 W/m² | - |
| 1777737552 | 25° C | 47% | 1014.3 hPa | 0 mm | - | 193 W/m² | - |
| 1777736352 | 25.56° C | 46% | 1014.5 hPa | 0 mm | - | 288 W/m² | - |
| 1777735752 | 25.56° C | 46% | 1014.6 hPa | 0 mm | - | 303 W/m² | - |
| 1777735151 | 25.56° C | 46% | 1014.6 hPa | 0 mm | - | 405 W/m² | - |
| 1777734551 | 25.56° C | 47% | 1014.8 hPa | 0 mm | - | 438 W/m² | - |
| 1777733952 | 25.56° C | 47% | 1014.8 hPa | 0 mm | - | 353 W/m² | - |
| 1777733352 | 25.56° C | 46% | 1014.9 hPa | 0 mm | - | 336 W/m² | - |
| 1777732751 | 25.56° C | 45% | 1014.9 hPa | 0 mm | - | 396 W/m² | - |
| 1777732151 | 25.56° C | 45% | 1015 hPa | 0 mm | - | 545 W/m² | - |
| 1777731552 | 25.56° C | 45% | 1015 hPa | 0 mm | - | 493 W/m² | - |
| 1777730951 | 26.11° C | 44% | 1015.1 hPa | 0 mm | - | 579 W/m² | - |
| 1777730352 | 26.11° C | 43% | 1015 hPa | 0 mm | - | 609 W/m² | - |
| 1777729751 | 25.56° C | 42% | 1015.1 hPa | 0 mm | - | 500 W/m² | - |
| 1777729152 | 25.56° C | 43% | 1015.2 hPa | 0 mm | - | 556 W/m² | - |
| 1777728551 | 25.56° C | 45% | 1015.3 hPa | 0 mm | - | 617 W/m² | - |
| 1777727952 | 25.56° C | 44% | 1015.4 hPa | 0 mm | - | 590 W/m² | - |
| 1777727352 | 25.56° C | 44% | 1015.5 hPa | 0 mm | - | 672 W/m² | - |
| 1777726751 | 25.56° C | 44% | 1015.6 hPa | 0 mm | - | 655 W/m² | - |
| 1777726152 | 25.56° C | 43% | 1015.7 hPa | 0 mm | - | 602 W/m² | - |
| 1777725551 | 25.56° C | 43% | 1015.8 hPa | 0 mm | - | 740 W/m² | - |
| 1777724951 | 25° C | 42% | 1015.8 hPa | 0 mm | - | 590 W/m² | - |
| 1777724351 | 25.56° C | 43% | 1016 hPa | 0 mm | - | 667 W/m² | - |
| 1777723751 | 25.56° C | 42% | 1016 hPa | 0 mm | - | 740 W/m² | - |
| 1777723152 | 25.56° C | 41% | 1016.2 hPa | 0 mm | - | 717 W/m² | - |
* Rain latest hour (hover to see other rain measurements)
** Current wind speed in m/s (hover to see current wind gust speed)